www.pogodaiklimat.ru

АРХИВ ПОГОДЫ в Краснодаре

Время (UTC), дата Ветер
(напр.,м/с)
 
Видим.   Явления Облачность Т
(С)
Тd
(С)
f
(%)
Тe
(С)
Тes
(С)
Комфортность P
(гПа)
Po
(гПа)
Тmin
(С)
Tmax
(С)
R
(мм)
S
(см)
03 19.10 С 2 10 км 9/8 600 м
[Cb cap Ac trans]
+4.5 -0.4 70 +2 +2 холодно 1019.3 1015.5 +4.5 5
06 19.10 С 1 10 км 10/8 1000 м
[Sc Ac und]
+4.0 -1.4 68 +3 +3 холодно 1022.4 1018.6 +3.9
09 19.10 С 1 10 км 10/5 600 м
[St Ac und]
+4.8 -0.9 67 +4 +5 очень
холодно
1024.2 1020.4
12 19.10 С 2 10 км 10/10 1000 м
[Sc]
+4.7 -1.1 66 +2 +2 очень
холодно
1025.4 1021.6
15 19.10 С 1 10 км 10/10 1000 м
[Sc]
+3.9 -0.7 72 +3 +3 очень
холодно
1027.1 1023.3 +5.6
18 19.10 СВ 1 10 км 10/5 1000 м
[Sc Ac und]
+3.3 -2.3 67 +2 +2 очень
холодно
1028.5 1024.7
21 19.10 СВ 1 10 км 10/6 1000 м
[Sc Ac und]
+2.4 -2.4 71 +1 +1 очень
холодно
1028.4 1024.6
00 20.10 СВ 1 10 км 9/5 1000 м
[Sc Ac trans]
+1.8 -3.0 70 0 0 очень
холодно
1027.4 1023.6
03 20.10 штиль 0 10 км 3/3 1000 м
[Sc]
+0.7 -3.0 76 -0 -0 очень
холодно
1026.6 1022.7 +0.7
06 20.10 штиль 0 10 км 10/1 1000 м
[Sc Ac trans Ci fib]
+5.0 -1.1 65 +4 +6 холодно 1025.6 1021.8 +0.7
09 20.10 ЮЗ 2 10 км 8/3 1000 м
[Sc Ac trans Ci fib]
+8.2 -0.6 54 +7 +10 холодно 1024.1 1020.4
12 20.10 З 3 10 км 3/0
[Ac trans Ci fib]
+12.1 -0.7 41 +11 +13 холодно 1021.5 1017.9
15 20.10 ЮЗ 2 10 км 8/0
[Ac trans Ci fib]
+11.2 +3.4 59 +10 +10 прохладно 1019.4 1015.7 +13.0
18 20.10 ЮЗ 1 10 км ясно +8.4 +3.5 71 +8 +8 прохладно 1018.6 1014.9
21 20.10 З 2 10 км ясно +8.0 +4.0 76 +6 +6 прохладно 1017.7 1014.0
00 21.10 ЮЗ 2 10 км ясно +8.4 +5.0 79 +7 +7 по сезону 1016.1 1012.5
03 21.10 З 2 10 км 4/0
[Ac trans]
+9.2 +5.5 78 +8 +8 по сезону 1015.6 1011.9 +7.4
06 21.10 З 2 10 км 8/6 1000 м
[Sc Ac trans Ci]
+13.3 +6.4 63 +13 +13 тепло 1015.1 1011.5
09 21.10 ЮЗ 4-10
{11}
10 км 8/8 1000 м
[Sc]
+16.2 +3.9 44 +16 +16 тепло 1014.0 1010.4
12 21.10 ЮЗ 5-11
{11}
10 км 3/0
[Ac trans]
+16.6 +5.8 49 +16 +17 по сезону 1013.4 1009.8
15 21.10 ЮЗ 3
{12}
10 км 10/4 1000 м
[Sc Ac und]
+14.1 +6.3 59 +13 +13 по сезону 1012.8 1009.2 +17.1
18 21.10 ЮЗ 3 10 км 10/10 600 м
[Cb cap]
+14.1 +6.4 60 +13 +13 тепло 1012.2 1008.6
21 21.10 ЮЗ 3 10 км 9/9 1000 м
[Sc]
+14.5 +7.1 61 +14 +14 тепло 1011.1 1007.5
00 22.10 Ю 4
{10}
10 км в посл. час ливневой дождь 10/10 600 м
[Sc diur, vesp]
+14.5 +7.7 64 +13 +13 тепло 1008.7 1005.1
03 22.10 ЮЗ 4
{10}
10 км 9/6 1000 м
[Sc Ac trans]
+14.9 +6.9 59 +14 +14 тепло 1010.4 1006.9 +13.9 0.0
06 22.10 ЮЗ 3 10 км 10/6 1000 м
[Sc Ac und]
+15.5 +7.5 59 +15 +15 тепло 1012.5 1008.9
09 22.10 ЮЗ 4 10 км 8/4 1000 м
[Sc Ac trans]
+19.4 +5.6 40 +20 +21 тепло 1011.1 1007.6
12 22.10 ЮЗ 3 10 км 3/3 1000 м
[Sc]
+21.3 +3.8 32 +22 +23 комфорт 1010.3 1006.8
15 22.10 штиль 0 10 км 4/3 1000 м
[Sc Ci fib]
+16.7 +4.6 45 +17 +17 тепло 1011.5 1007.9 +21.6
18 22.10 ЮЗ 1 10 км 4/0
[Ci fib]
+14.5 +2.8 45 +15 +15 тепло 1012.2 1008.6
21 22.10 ЮВ 1 10 км ясно +12.1 +3.4 55 +12 +12 тепло 1012.5 1008.8
00 23.10 СВ 1 10 км ясно +8.1 +5.2 82 +7 +7 по сезону 1011.8 1008.1
03 23.10 В 1 10 км 4/0
[Ac trans Ci fib]
+8.2 +5.9 85 +7 +7 по сезону 1012.3 1008.6 +7.5
06 23.10 В 1 10 км 8/0
[Ac trans Ci fib]
+14.1 +7.1 63 +15 +16 тепло 1013.0 1009.4
09 23.10 В 2 10 км 3/0
[Ac trans Ci fib]
+21.3 +2.6 29 +21 +26 комфорт 1012.9 1009.4
12 23.10 СВ 2 10 км 9/1 1000 м
[Sc Ac trans Ci fib]
+22.8 +3.4 28 +23 +24 комфорт 1012.1 1008.6
15 23.10 СВ 1 10 км 8/1 1000 м
[Sc Ac trans Ci fib]
+18.8 +4.6 39 +20 +20 тепло 1012.7 1009.2 +23.7
18 23.10 СВ 2 4000 м дымка 10/9 600 м
[Cb cap Ac trans]
+12.6 +10.6 88 +12 +12 тепло 1014.5 1010.9
21 23.10 СВ 3 н/о дымка 10/10
[Sc]
+8.9 +7.3 90 +6 +6 по сезону 1016.2 1012.5
00 24.10 СВ 2 1000 м дымка 10/10 300 м
[Cb cap]
+7.3 +5.7 90 +5 +5 по сезону 1017.1 1013.4
03 24.10 СВ 2 1000 м дымка 10/10 600 м
[St]
+5.8 +4.0 88 +3 +3 прохладно 1018.5 1014.7 +5.8
06 24.10 СВ 3 10 км дымка 10/10 600 м
[Cb cap]
+4.3 +2.2 86 +1 +1 холодно 1020.4 1016.7 +4.3
09 24.10 СВ 2
{10}
10 км 10/10 300 м
[St]
+3.6 +1.3 85 +1 +1 очень
холодно
1021.3 1017.5
12 24.10 СВ 3
{10}
10 км 10/10 600 м
[St]
+4.6 +0.9 77 +1 +1 очень
холодно
1021.0 1017.2
15 24.10 СВ 3
{11}
10 км 10/10 600 м
[St]
+4.1 +0.1 75 +1 +1 очень
холодно
1021.5 1017.7 +5.8
18 24.10 СВ 3-11
{11}
10 км 10/10 1000 м
[Sc]
+2.9 -0.8 77 -1 -1 очень
холодно
1022.0 1018.2
21 24.10 СВ 3
{12}
10 км 9/9 1000 м
[Sc]
+1.4 -2.9 73 -3 -3 очень
холодно
1023.4 1019.5
00 25.10 СВ 3
{12}
н/о н/о 0.0 -1.9 87 -5 -5 очень
холодно
1024.1 1020.3
03 25.10 СВ 1 10 км слабый ливневой дождь 10/10 1000 м
[Sc]
0.0 -1.5 90 -2 -2 очень
холодно
1024.8 1021.0 -0.0 3
06 25.10 СВ 1 4000 м слабый переохл. дождь (гололёд) [диам. гололёда 3 мм] 10/10 300 м
[Frnb Ns]
-0.0 -2.1 86 -2 -2 очень
холодно
1027.0 1023.2 -0.2
09 25.10 СВ 2 10 км {дождь} 10/10 300 м
[St]
+1.2 -1.6 82 -2 -2 очень
холодно
1027.9 1024.0
12 25.10 СВ 4-11
{13}
10 км {дождь} 8/8 600 м
[Sc]
+3.2 -1.9 69 -1 -1 очень
холодно
1028.1 1024.3
15 25.10 СВ 3
{11}
10 км ясно +0.5 -3.8 73 -4 -4 очень
холодно
1029.1 1025.3 +3.2 5
18 25.10 СВ 2
{10}
10 км ясно -1.2 -4.9 76 -5 -5 очень
холодно
1030.1 1026.2
21 25.10 СВ 3
{10}
10 км ясно -1.7 -6.7 69 -6 -6 очень
холодно
1030.4 1026.5
00 26.10 СВ 3 10 км ясно -2.3 -7.2 69 -7 -7 очень
холодно
1030.5 1026.6

 

Обсудить погоду в Краснодаре на МЕТЕОФОРУМЕ

 

Местоположение метеостанции Краснодар (Краснодарский край, Россия): широта 45.03 долгота 39.15 высота над уровнем моря 34 м.

В архиве по умолчанию представлена погода в Краснодаре за последнюю неделю. Архивные данные за месяц целиком и за предыдущие месяцы, начиная с января 2011 года, Вы можете получить, выбрав интересующий диапазон дат из раскрывающегося списка и нажав кнопку "Ввод!".

Внимание! Время в таблицах - всемирное. Для получения местного времени необходимо прибавить поправку, которая в Краснодаре равна 4 ч.

Ветер - указаны скорость ветра в м/с - средняя за 10 мин, порывы в срок и между сроками (в фигурных скобках) и направление, откуда дует ветер: С - северный, СВ - северо-восточный, В - восточный, ЮВ - юго-восточный, Ю - южный, ЮЗ - юго-западный, З - западный, СЗ - северо-западный.
Видимость - горизонтальная дальность видимости в метрах или километрах. При видимости от 1 до 10 км при отсутствии осадков обычно наблюдается дымка, при ухудшении видимости до 1 км и менее - туман. В сухую погоду видимость может ухудшаться дымом, пылью или мглою.
Явления - указаны атсосферные явления, наблюдавшиеся в срок или в последний час перед сроком; фигурными скобками обозначены явления, наблюдавшиеся между сроками (за 1-3 часа до срока); квадратными скобками обозначены град или гололедные отложения с указанием их диаметра в мм.
Облачность - указаны через наклонную черту общая и нижняя облачность в баллах и высота нижней границы облаков в метрах; квадратными скобками обозначены формы облаков: Ci - перистые, Cs - перисто-слоистые, Cc - перисто-кучевые, Ac - высококучевые, As - высокослоистые, Sc - слоисто-кучевые, Ns - слоисто-дождевые, Cu - кучевые, Cb - кучево-дождевые. Подробнее классификацию облаков см. в Атласе облаков (PDF).
T - Температура воздуха - температура, измеренная на высоте 2 м над землей.
Td - Температура точки росы - температура, при понижении до которой содержащийся в воздухе водяной пар достигнет насыщения.
f - Относительная влажность воздуха - влажноcть воздуха, измеренная на высоте 2 м над землей.
Te - Эффективная температура - температура, которую ощущает одетый по сезону человек в тени. Характеристика душности погоды. При расчете учитывается влияние влажности воздуха и скорости ветра на теплоощущения человека.
Tes - Эффективная температура на солнце - температура, которую ощущает человек, с поправкой на солнечный нагрев. Характеристика знойности погоды. Зависит от высоты солнца над горизонтом, облачности и скорости ветра. Ночью, в пасмурную погоду, а также при ветре 12 м/с и более поправка равна нулю.
P - Атмосферное давление - приведенное к уровню моря атмосферное давление.
Po - Атмосферное давление - измеренное на уровне метеостанции атмосферное давление.
Tmin - Минимальная температура - минимум температуры воздуха на высоте 2 м над землей.
Tmax - Максимальная температура - максимум температуры воздуха на высоте 2 м над землей.
R - Количество осадков - Количество выпавших осадков, мм.
S - Снежный покров - Высота снежного покрова, см.